143  
AXUS43 KGID 241502  
MISGRI  
 
GID CWA HOURLY WEATHER ROUNDUP  
NATIONAL WEATHER SERVICE HASTINGS NE  
1000 AM CDT SUN MAR 24 2019  
 
NOTE: "FAIR" INDICATES FEW OR NO CLOUDS BELOW 12,000 FEET WITH NO  
SIGNIFICANT WEATHER AND/OR OBSTRUCTIONS TO VISIBILITY.  
   
..SOUTH CENTRAL NEBRASKA
 
 
 
CITY SKY/WX TMP DP RH WIND PRES REMARKS  
GRAND ISLAND CLOUDY 43 41 93 N14 30.02R FOG  
KEARNEY CLOUDY 42 40 92 N15 30.05  
HASTINGS CLOUDY 44 42 93 N15G24 30.01R FOG  
ORD CLOUDY 42 40 92 NW8 30.04R FOG  
YORK CLOUDY 43 43 100 N9 29.99R  
AURORA CLOUDY 42 42 100 N13 30.00R  
LEXINGTON CLOUDY 43 39 86 N9 30.06R  
HOLDREGE CLOUDY 41 41 98 N9 30.04R FOG  
HEBRON CLOUDY 46 44 95 NW10G20 29.98R FOG  
   
..NEBRASKA PANHANDLE
 
 
 
CITY SKY/WX TMP DP RH WIND PRES REMARKS  
CHADRON CLOUDY 37 36 96 N3 30.09R FOG  
ALLIANCE CLOUDY 33 33 100 SE3 30.07R  
SCOTTSBLUFF LGT RAIN 40 40 100 CALM 30.07R VSB 1/2  
SIDNEY CLOUDY 41 38 89 CALM 30.08R  
   
..WESTERN AND NORTH CENTRAL NEBRASKA
 
 
 
CITY SKY/WX TMP DP RH WIND PRES REMARKS  
VALENTINE CLOUDY 37 34 89 NW3 30.11R FOG  
AINSWORTH FOG 36 36 100 N7 30.09R VSB 3/4 WCI 30  
ONEILL FAIR 40 39 97 N8 30.07R WCI 35  
BROKEN BOW CLOUDY 42 39 89 N15 30.05R  
IMPERIAL CLOUDY 43 38 82 NW7 30.08R  
NORTH PLATTE CLOUDY 46 39 76 NE7 30.07R  
MCCOOK CLOUDY 44 40 85 NW7 30.08R  
   
..EASTERN NEBRASKA
 
 
 
CITY SKY/WX TMP DP RH WIND PRES REMARKS  
NORFOLK CLOUDY N/A N/A N/A N8 30.01R HAZE  
SO SIOUX CITY CLOUDY 42 40 92 N9 30.03R  
TEKAMAH LGT RAIN 43 42 97 N10 29.99R FOG  
COLUMBUS LGT RAIN 43 41 93 N15 30.00R  
ALBION CLOUDY 42 41 95 N10 30.03R FOG  
OMAHA EPPLEY CLOUDY 48 45 89 N8 29.96R FOG  
MILLARD CLOUDY 50 48 93 CALM 29.96R FOG  
LINCOLN CLOUDY 47 46 97 N16 29.96R FOG  
NEBRASKA CITY LGT RAIN 48 48 99 E5 29.93S  
BEATRICE CLOUDY 50 48 93 W9 29.93S  
FALLS CITY CLOUDY 48 44 86 W8 29.93R  
   
..NORTHERN KANSAS
 
 
 
CITY SKY/WX TMP DP RH WIND PRES REMARKS  
GOODLAND CLOUDY 40 38 93 NW10 30.08R WCI 33  
HILL CITY PTSUNNY 47 41 80 N16 30.06R  
NORTON CLOUDY 44 40 85 NW8 30.09R  
PHILLIPSBURG CLOUDY 45 39 81 NW12G23 30.06R  
OBERLIN CLOUDY 44 40 85 N12 30.11R  
SMITH CENTER CLOUDY 43 39 86 NW14 30.05R  
HAYS CLOUDY 46 42 86 NW15 30.05R  
RUSSELL CLOUDY 47 43 86 NW15 30.02R  
CONCORDIA CLOUDY 46 44 93 NW12 29.98R  
SALINA CLOUDY 50 42 74 NW18 30.00R  
TOPEKA CLOUDY 50 43 77 W8 29.96R  
 
CLICK HERE TO GO TO PREVIOUS BULLETINS.

The Nexlab NE Page
The Nexlab KS Page Main Text Page